| time (UTC) | temp F | wind direction | speed MPH | gust MPH | rain 1hr in | rain 24hr in | rain mn in | humidity % | barometer mb |
| 20260506044549 | 38 | 348 | 12.0 | 18.0 | 0.00 | 0.00 | 0.00 | 63 | 1010.1 |
| 20260506043043 | 38 | 351 | 12.0 | 18.0 | 0.00 | 0.00 | 0.00 | 62 | 1010.2 |
| 20260506041543 | 38 | 340 | 11.0 | 18.0 | 0.00 | 0.00 | 0.00 | 65 | 1010.2 |
| 20260506040044 | 38 | 321 | 11.0 | 16.0 | 0.00 | 0.00 | 0.00 | 64 | 1010.2 |
| 20260506034539 | 39 | 329 | 9.0 | 13.0 | 0.00 | 0.00 | 0.00 | 65 | 1010.1 |
| 20260506033046 | 39 | 348 | 10.0 | 15.0 | 0.00 | 0.00 | 0.00 | 66 | 1010.0 |
| 20260506031549 | 39 | 346 | 11.0 | 14.0 | 0.00 | 0.00 | 0.00 | 66 | 1010.0 |
| 20260506030044 | 39 | 5 | 11.0 | 15.0 | 0.00 | 0.00 | 0.00 | 65 | 1009.9 |
| 20260506024550 | 40 | 348 | 8.0 | 12.0 | 0.00 | 0.00 | 0.00 | 66 | 1009.8 |
| 20260506023044 | 40 | 338 | 8.0 | 12.0 | 0.00 | 0.00 | 0.00 | 61 | 1009.8 |
| 20260506021538 | 40 | 302 | 7.0 | 11.0 | 0.00 | 0.00 | 0.00 | 60 | 1009.5 |
| 20260506020044 | 40 | 296 | 4.0 | 7.0 | 0.00 | 0.00 | 0.00 | 60 | 1009.3 |
| 20260506014545 | 40 | 315 | 6.0 | 9.0 | 0.00 | 0.00 | 0.00 | 60 | 1009.2 |
| 20260506013045 | 40 | 326 | 6.0 | 11.0 | 0.00 | 0.00 | 0.00 | 59 | 1009.0 |
| 20260506011543 | 41 | 323 | 5.0 | 10.0 | 0.00 | 0.00 | 0.00 | 59 | 1009.0 |
| 20260506010043 | 41 | 324 | 9.0 | 11.0 | 0.00 | 0.00 | 0.00 | 58 | 1008.8 |
| 20260506004545 | 41 | 333 | 10.0 | 15.0 | 0.00 | 0.00 | 0.00 | 57 | 1008.7 |
| 20260506003039 | 41 | 323 | 11.0 | 15.0 | 0.00 | 0.00 | 0.00 | 57 | 1008.8 |
| 20260506001608 | 41 | 301 | 11.0 | 13.0 | 0.00 | 0.00 | 0.00 | 57 | 1008.7 |
| 20260506000043 | 41 | 318 | 12.0 | 18.0 | 0.00 | 0.00 | 0.00 | 57 | 1008.6 |
| 20260505234549 | 41 | 329 | 13.0 | 20.0 | 0.00 | 0.00 | 0.00 | 58 | 1008.5 |
| 20260505233042 | 41 | 284 | 17.0 | 22.0 | 0.00 | 0.00 | 0.00 | 57 | 1008.5 |
| 20260505231551 | 41 | 286 | 13.0 | 18.0 | 0.00 | 0.00 | 0.00 | 60 | 1008.4 |
| 20260505230055 | 41 | 273 | 17.0 | 23.0 | 0.00 | 0.00 | 0.00 | 58 | 1008.4 |
| 20260505224547 | 41 | 293 | 14.0 | 25.0 | 0.00 | 0.00 | 0.00 | 57 | 1008.4 |
| 20260505223046 | 41 | 296 | 13.0 | 23.0 | 0.00 | 0.00 | 0.00 | 61 | 1008.3 |
| 20260505221544 | 41 | 314 | 23.0 | 27.0 | 0.00 | 0.00 | 0.00 | 55 | 1008.2 |
| 20260505220046 | 41 | 304 | 21.0 | 26.0 | 0.00 | 0.00 | 0.00 | 57 | 1008.2 |
| 20260505214538 | 41 | 284 | 15.0 | 23.0 | 0.00 | 0.00 | 0.00 | 60 | 1008.2 |
| 20260505213054 | 40 | 310 | 14.0 | 24.0 | 0.00 | 0.00 | 0.00 | 56 | 1008.1 |
| 20260505211547 | 40 | 314 | 14.0 | 20.0 | 0.00 | 0.00 | 0.00 | 58 | 1007.9 |
| 20260505210043 | 39 | 315 | 15.0 | 19.0 | 0.00 | 0.00 | 0.00 | 58 | 1008.0 |
| 20260505204544 | 39 | 298 | 12.0 | 18.0 | 0.00 | 0.00 | 0.00 | 59 | 1008.0 |
| 20260505203042 | 39 | 327 | 12.0 | 23.0 | 0.00 | 0.00 | 0.00 | 59 | 1008.0 |
| 20260505201538 | 38 | 332 | 16.0 | 21.0 | 0.00 | 0.00 | 0.00 | 60 | 1008.0 |
| 20260505200046 | 38 | 318 | 15.0 | 24.0 | 0.00 | 0.00 | 0.00 | 59 | 1007.9 |
| 20260505194547 | 38 | 296 | 16.0 | 26.0 | 0.00 | 0.00 | 0.00 | 63 | 1008.0 |
| 20260505193042 | 38 | 315 | 18.0 | 25.0 | 0.00 | 0.00 | 0.00 | 61 | 1008.0 |
| 20260505191603 | 37 | 288 | 20.0 | 26.0 | 0.00 | 0.00 | 0.00 | 61 | 1007.9 |
| 20260505190043 | 37 | 291 | 18.0 | 24.0 | 0.00 | 0.00 | 0.00 | 62 | 1007.9 |
| 20260505184539 | 37 | 306 | 18.0 | 28.0 | 0.00 | 0.00 | 0.00 | 66 | 1007.7 |
| 20260505183042 | 37 | 288 | 19.0 | 25.0 | 0.00 | 0.00 | 0.00 | 65 | 1007.5 |
| 20260505181541 | 36 | 294 | 17.0 | 25.0 | 0.00 | 0.00 | 0.00 | 64 | 1007.5 |
| 20260505180058 | 36 | 294 | 18.0 | 25.0 | 0.00 | 0.00 | 0.00 | 63 | 1007.6 |
| 20260505174555 | 36 | 290 | 20.0 | 26.0 | 0.00 | 0.00 | 0.00 | 64 | 1007.6 |
| 20260505173047 | 35 | 300 | 18.0 | 24.0 | 0.00 | 0.00 | 0.00 | 64 | 1007.5 |
| 20260505171548 | 35 | 298 | 16.0 | 20.0 | 0.00 | 0.00 | 0.00 | 64 | 1007.4 |
| 20260505170043 | 35 | 314 | 17.0 | 21.0 | 0.00 | 0.00 | 0.00 | 67 | 1007.5 |
| 20260505164546 | 35 | 293 | 18.0 | 22.0 | 0.00 | 0.00 | 0.00 | 64 | 1007.2 |
| 20260505163039 | 35 | 306 | 18.0 | 29.0 | 0.00 | 0.00 | 0.00 | 64 | 1007.2 |
| 20260505161551 | 34 | 301 | 21.0 | 29.0 | 0.00 | 0.00 | 0.00 | 61 | 1007.0 |
| 20260505153045 | 34 | 306 | 21.0 | 32.0 | 0.00 | 0.00 | 0.00 | 65 | 1006.7 |
| 20260505151540 | 35 | 306 | 21.0 | 28.0 | 0.00 | 0.00 | 0.00 | 64 | 1006.4 |
| 20260505124542 | 34 | 316 | 12.0 | 20.0 | 0.00 | 0.00 | 0.00 | 75 | 1004.7 |
| 20260505123042 | 34 | 313 | 14.0 | 19.0 | 0.00 | 0.00 | 0.00 | 74 | 1004.5 |
| 20260505121540 | 35 | 311 | 17.0 | 23.0 | 0.00 | 0.00 | 0.00 | 75 | 1004.5 |
| 20260505120045 | 35 | 297 | 17.0 | 24.0 | 0.00 | 0.00 | 0.00 | 76 | 1004.2 |
| 20260505114544 | 35 | 312 | 19.0 | 26.0 | 0.00 | 0.00 | 0.00 | 75 | 1004.0 |
| 20260505113049 | 36 | 306 | 19.0 | 26.0 | 0.00 | 0.00 | 0.00 | 77 | 1003.7 |
| 20260505111543 | 36 | 287 | 18.0 | 25.0 | 0.00 | 0.00 | 0.00 | 77 | 1003.4 |
| 20260505101556 | 37 | 302 | 14.0 | 21.0 | 0.00 | 0.00 | 0.00 | 75 | 1002.6 |
| 20260505100100 | 37 | 311 | 15.0 | 21.0 | 0.00 | 0.00 | 0.00 | 75 | 1002.6 |
| 20260505094544 | 37 | 299 | 14.0 | 23.0 | 0.00 | 0.00 | 0.00 | 75 | 1002.4 |
| 20260505093051 | 37 | 308 | 16.0 | 23.0 | 0.00 | 0.00 | 0.00 | 74 | 1002.3 |
| 20260505091542 | 37 | 306 | 16.0 | 21.0 | 0.00 | 0.00 | 0.00 | 73 | 1002.2 |
| 20260505090037 | 38 | 294 | 15.0 | 19.0 | 0.00 | 0.00 | 0.00 | 73 | 1002.0 |
| 20260505084546 | 38 | 301 | 16.0 | 22.0 | 0.00 | 0.00 | 0.00 | 74 | 1001.9 |
| 20260505083044 | 38 | 298 | 15.0 | 20.0 | 0.00 | 0.00 | 0.00 | 75 | 1001.9 |
| 20260505081556 | 38 | 298 | 14.0 | 19.0 | 0.00 | 0.00 | 0.00 | 75 | 1001.7 |
| 20260505080053 | 38 | 296 | 13.0 | 17.0 | 0.00 | 0.00 | 0.00 | 73 | 1001.6 |
| 20260505074542 | 39 | 298 | 15.0 | 20.0 | 0.00 | 0.00 | 0.00 | 72 | 1001.5 |
| 20260505073045 | 39 | 305 | 12.0 | 18.0 | 0.00 | 0.00 | 0.00 | 72 | 1001.5 |
| 20260505071551 | 40 | 296 | 13.0 | 18.0 | 0.00 | 0.00 | 0.00 | 72 | 1001.6 |
| 20260505070045 | 40 | 292 | 11.0 | 18.0 | 0.00 | 0.00 | 0.00 | 72 | 1001.5 |
| 20260505064543 | 40 | 300 | 14.0 | 19.0 | 0.00 | 0.00 | 0.00 | 71 | 1001.5 |
| 20260505063048 | 41 | 298 | 14.0 | 20.0 | 0.00 | 0.00 | 0.00 | 71 | 1001.5 |
| 20260505061541 | 41 | 309 | 14.0 | 19.0 | 0.00 | 0.00 | 0.00 | 69 | 1001.6 |
| 20260505060050 | 41 | 298 | 13.0 | 17.0 | 0.00 | 0.00 | 0.00 | 70 | 1001.6 |